Regional Weather Roundup
Issued by NWS

Home | Current Version | Previous Version | Graphics & Text | Print | Product List | Glossary On
Versions: 1 2 3 4 5 6 7 8 9 10 11 12 13 14 15 16 17 18 19 20 21 22 23 24 25 26 27 28 29 30 31 32 33 34 35 36 37 38 39 40 41 42 43 44 45 46 47 48 49 50
000
ASUS45 KBOI 192010
RWRID
WEATHER ROUNDUP FOR IDAHO
NATIONAL WEATHER SERVICE BOISE ID
100 PM MST FRI DEC 19 2014

NOTE: "FAIR" INDICATES FEW OR NO CLOUDS BELOW 12000 FEET
WITH NO SIGNIFICANT WEATHER AND/OR OBSTRUCTIONS TO VISIBILITY

IDZ012-014-192100-
SOUTHWEST IDAHO


CITY           SKY/WX    TMP DP  RH WIND       PRES   REMARKS
BOISE          LGT RAIN  41  39  93 SE15      30.05F
CALDWELL       CLOUDY    43  34  70 NE10      30.04F
MOUNTAIN HOME  CLOUDY    39  36  87 E18       30.05F WCI  30
$$

IDZ016-017-192100-
SOUTHCENTRAL IDAHO


CITY           SKY/WX    TMP DP  RH WIND       PRES   REMARKS
BURLEY         CLOUDY    43  30  60 S18G31    30.04F
JEROME         LGT RAIN  41  32  70 CALM      30.07S
TWIN FALLS     LGT RAIN  46  30  53 S14       30.05F
$$

IDZ019>023-192100-
SOUTHEAST IDAHO


CITY           SKY/WX    TMP DP  RH WIND       PRES   REMARKS
IDAHO FALLS    CLOUDY    39  31  72 S6        30.07F WCI  35
POCATELLO      PTSUNNY   42  29  59 S18G26    30.06F
REXBURG        CLOUDY    34  32  92 NE3       30.07F
$$

IDZ006-010-011-018-031-032-192100-
CENTRAL IDAHO MOUNTAINS


CITY           SKY/WX    TMP DP  RH WIND       PRES   REMARKS
MCCALL         LGT SNOW  32  31  96 SE8       29.96F VSB 3/4 WCI  25
HAILEY         LGT SNOW  34  32  93 CALM      30.07F
STANLEY          N/A     33  27  78 SE12G21   29.97F WCI  24
SALMON         CLOUDY    34  27  75 CALM      29.97F
CHALLIS        CLOUDY    31  27  85 CALM      29.98F
$$

IDZ002-004-006-007-026-192100-
NORTHERN IDAHO


CITY           SKY/WX    TMP DP  RH WIND       PRES   REMARKS
LEWISTON       LGT RAIN  42  42 100 SE5       29.96S FOG
LOWELL           N/A     39  37  92 CALM      29.99F
COEUR D`ALENE  CLOUDY    39  36  87 S12G20    29.88F WCI  32
MULLAN PASS    SNOW      31  28  89 VRB6      29.83S VSB 1/4 WCI  25
$$


USA.gov is the U.S. government's official web portal to all federal, state and local government web resources and services.